Location: Beuvrequen
(50.8014°N, 1.6652°E)
Time: 03:51:12
(UTC+00:00)

Landsat 5 - Pass Details

Date: 16 October 2021
Orbit: 528 x 652 km, 98.2° (Epoch: 28 November)

Event Time Altitude Azimuth Distance (km) Brightness Sun altitude
Rises 17:46:26 0° 19° (NNE) 2,861 6.7 -8.3°
Reaches altitude 10° 17:48:39 10° 25° (NNE) 1,973 5.9 -8.6°
Maximum altitude 17:52:49 48° 100° (E) 816 3.8 -9.3°
Drops below altitude 10° 17:57:05 10° 176° (S) 2,020 6.2 -10.0°
Sets 17:59:22 0° 181° (S) 2,937 7.1 -10.3°
